| time (UTC) | temp F | wind direction | speed knots | gust knots | rain 1hr in | rain 24hr in | rain mn in | humidity % | barometer mb |
| 20260508033032 | 49 | 0 | 0.0 | 3.5 | 0.00 | 0.98 | 0.00 | 97 | 1002.1 |
| 20260508031533 | 49 | 276 | 0.0 | 3.5 | 0.00 | 0.98 | 0.00 | 96 | 1002.0 |
| 20260508030043 | 49 | 275 | 1.7 | 7.0 | 0.00 | 0.98 | 0.00 | 97 | 1002.3 |
| 20260508024543 | 49 | 302 | 0.0 | 2.6 | 0.00 | 0.98 | 0.98 | 97 | 1001.9 |
| 20260508023036 | 49 | 0 | 0.0 | 0.0 | 0.00 | 0.98 | 0.98 | 97 | 1001.8 |
| 20260508021532 | 49 | 0 | 0.0 | 2.6 | 0.00 | 0.98 | 0.98 | 96 | 1001.8 |
| 20260508020031 | 49 | 234 | 0.0 | 3.5 | 0.00 | 0.98 | 0.98 | 96 | 1001.8 |
| 20260508014538 | 49 | 202 | 0.0 | 4.3 | 0.00 | 0.98 | 0.98 | 96 | 1002.0 |
| 20260508013037 | 50 | 179 | 0.9 | 4.3 | 0.00 | 0.98 | 0.98 | 96 | 1001.8 |
| 20260508011542 | 50 | 203 | 1.7 | 5.2 | 0.00 | 0.98 | 0.98 | 96 | 1001.6 |
| 20260508010035 | 50 | 213 | 2.6 | 9.6 | 0.00 | 0.98 | 0.98 | 96 | 1002.0 |
| 20260508004532 | 50 | 198 | 1.7 | 5.2 | 0.00 | 0.98 | 0.98 | 96 | 1002.0 |
| 20260508003038 | 50 | 209 | 1.7 | 4.3 | 0.00 | 0.98 | 0.98 | 96 | 1001.9 |
| 20260508001536 | 50 | 204 | 1.7 | 6.1 | 0.00 | 0.98 | 0.98 | 96 | 1002.1 |
| 20260508000035 | 51 | 176 | 3.5 | 7.0 | 0.00 | 0.98 | 0.98 | 96 | 1002.5 |
| 20260507234534 | 51 | 213 | 1.7 | 4.3 | 0.00 | 0.98 | 0.98 | 96 | 1002.3 |
| 20260507233037 | 51 | 159 | 3.5 | 5.2 | 0.00 | 0.98 | 0.98 | 95 | 1002.4 |
| 20260507231546 | 51 | 219 | 1.7 | 8.7 | 0.00 | 0.98 | 0.98 | 95 | 1002.5 |
| 20260507230032 | 51 | 190 | 1.7 | 6.1 | 0.00 | 0.98 | 0.98 | 95 | 1002.5 |
| 20260507224537 | 51 | 199 | 2.6 | 6.1 | 0.00 | 0.98 | 0.98 | 95 | 1002.5 |
| 20260507223038 | 51 | 190 | 2.6 | 7.0 | 0.00 | 0.98 | 0.98 | 95 | 1002.4 |
| 20260507221537 | 51 | 216 | 4.3 | 13.0 | 0.00 | 0.98 | 0.98 | 94 | 1003.0 |
| 20260507220034 | 51 | 292 | 3.5 | 8.7 | 0.00 | 0.98 | 0.98 | 95 | 1002.7 |
| 20260507214532 | 50 | 197 | 1.7 | 8.7 | 0.02 | 0.98 | 0.98 | 94 | 1002.7 |
| 20260507213040 | 50 | 209 | 5.2 | 15.6 | 0.06 | 0.98 | 0.98 | 94 | 1002.7 |
| 20260507211534 | 50 | 178 | 6.1 | 13.0 | 0.12 | 0.98 | 0.98 | 94 | 1001.9 |
| 20260507210034 | 51 | 124 | 4.3 | 12.2 | 0.21 | 0.98 | 0.98 | 94 | 1002.3 |
| 20260507204540 | 51 | 140 | 4.3 | 9.6 | 0.29 | 0.96 | 0.96 | 94 | 1002.9 |
| 20260507203041 | 51 | 169 | 3.5 | 10.4 | 0.39 | 0.92 | 0.92 | 94 | 1003.8 |
| 20260507201538 | 52 | 167 | 3.5 | 9.6 | 0.46 | 0.85 | 0.85 | 94 | 1003.9 |
| 20260507200045 | 52 | 175 | 3.5 | 10.4 | 0.45 | 0.77 | 0.77 | 94 | 1004.5 |
| 20260507194537 | 52 | 209 | 0.9 | 5.2 | 0.43 | 0.67 | 0.67 | 94 | 1004.9 |
| 20260507193034 | 52 | 216 | 5.2 | 13.9 | 0.40 | 0.52 | 0.52 | 94 | 1004.8 |
| 20260507191535 | 53 | 166 | 7.0 | 13.9 | 0.29 | 0.39 | 0.39 | 94 | 1004.6 |
| 20260507190033 | 53 | 158 | 10.4 | 18.2 | 0.23 | 0.32 | 0.32 | 93 | 1004.9 |
| 20260507184539 | 53 | 165 | 9.6 | 18.2 | 0.15 | 0.24 | 0.24 | 93 | 1004.9 |
| 20260507183043 | 53 | 186 | 11.3 | 22.6 | 0.04 | 0.13 | 0.13 | 92 | 1005.3 |
| 20260507181538 | 54 | 169 | 12.2 | 19.1 | 0.00 | 0.09 | 0.09 | 90 | 1005.0 |
| 20260507180041 | 54 | 179 | 14.8 | 25.2 | 0.00 | 0.09 | 0.09 | 89 | 1004.8 |
| 20260507174536 | 55 | 182 | 13.9 | 24.3 | 0.00 | 0.09 | 0.09 | 88 | 1005.1 |
| 20260507173041 | 56 | 166 | 11.3 | 25.2 | 0.00 | 0.09 | 0.09 | 89 | 1005.3 |
| 20260507171557 | 56 | 171 | 11.3 | 22.6 | 0.00 | 0.09 | 0.09 | 88 | 1005.7 |
| 20260507170035 | 55 | 163 | 7.8 | 18.2 | 0.00 | 0.09 | 0.09 | 88 | 1006.0 |
| 20260507164550 | 56 | 163 | 10.4 | 23.5 | 0.00 | 0.09 | 0.09 | 88 | 1006.3 |
| 20260507163035 | 56 | 165 | 9.6 | 25.2 | 0.00 | 0.09 | 0.09 | 88 | 1006.5 |
| 20260507161544 | 56 | 194 | 10.4 | 22.6 | 0.00 | 0.09 | 0.09 | 88 | 1007.2 |
| 20260507160040 | 56 | 133 | 13.0 | 27.8 | 0.00 | 0.09 | 0.09 | 88 | 1007.2 |
| 20260507154536 | 57 | 179 | 14.8 | 27.8 | 0.00 | 0.09 | 0.09 | 88 | 1007.5 |
| 20260507153044 | 56 | 194 | 14.8 | 27.8 | 0.00 | 0.09 | 0.09 | 89 | 1008.0 |
| 20260507151541 | 56 | 182 | 14.8 | 26.9 | 0.00 | 0.09 | 0.09 | 88 | 1008.5 |
| 20260507150036 | 56 | 171 | 13.0 | 21.7 | 0.00 | 0.09 | 0.09 | 88 | 1008.4 |
| 20260507144534 | 56 | 206 | 13.9 | 25.2 | 0.00 | 0.09 | 0.09 | 88 | 1008.9 |
| 20260507143032 | 56 | 166 | 12.2 | 26.9 | 0.00 | 0.09 | 0.09 | 90 | 1009.3 |
| 20260507141537 | 56 | 200 | 11.3 | 24.3 | 0.00 | 0.09 | 0.09 | 89 | 1009.7 |
| 20260507140037 | 56 | 188 | 13.0 | 23.5 | 0.00 | 0.09 | 0.09 | 89 | 1010.0 |
| 20260507134545 | 56 | 180 | 7.0 | 31.3 | 0.00 | 0.09 | 0.09 | 90 | 1010.1 |
| 20260507133032 | 55 | 169 | 10.4 | 21.7 | 0.00 | 0.09 | 0.09 | 90 | 1010.3 |
| 20260507131537 | 55 | 173 | 8.7 | 19.1 | 0.00 | 0.09 | 0.09 | 90 | 1010.4 |
| 20260507130042 | 56 | 115 | 10.4 | 20.0 | 0.01 | 0.09 | 0.09 | 89 | 1010.1 |
| 20260507124534 | 55 | 182 | 6.1 | 19.1 | 0.01 | 0.09 | 0.09 | 91 | 1009.9 |
| 20260507123037 | 54 | 166 | 12.2 | 25.2 | 0.01 | 0.09 | 0.09 | 92 | 1010.3 |
| 20260507121535 | 55 | 171 | 12.2 | 24.3 | 0.01 | 0.09 | 0.09 | 92 | 1011.0 |
| 20260507120040 | 55 | 141 | 11.3 | 20.0 | 0.00 | 0.08 | 0.08 | 92 | 1011.5 |
| 20260507114537 | 54 | 197 | 8.7 | 19.1 | 0.00 | 0.08 | 0.08 | 92 | 1012.1 |
| 20260507113038 | 54 | 157 | 7.0 | 14.8 | 0.00 | 0.08 | 0.08 | 93 | 1012.1 |
| 20260507111534 | 53 | 194 | 8.7 | 14.8 | 0.00 | 0.08 | 0.08 | 93 | 1012.3 |
| 20260507110047 | 53 | 158 | 7.8 | 17.4 | 0.00 | 0.08 | 0.08 | 93 | 1012.0 |
| 20260507104535 | 53 | 162 | 10.4 | 15.6 | 0.00 | 0.08 | 0.08 | 93 | 1012.3 |
| 20260507103041 | 53 | 179 | 7.8 | 12.2 | 0.00 | 0.08 | 0.08 | 93 | 1012.8 |
| 20260507101543 | 53 | 203 | 8.7 | 13.9 | 0.00 | 0.08 | 0.08 | 92 | 1012.8 |
| 20260507100038 | 54 | 149 | 7.8 | 16.5 | 0.00 | 0.08 | 0.08 | 92 | 1012.4 |
| 20260507094537 | 54 | 193 | 7.0 | 15.6 | 0.01 | 0.08 | 0.08 | 93 | 1012.6 |
| 20260507093035 | 54 | 204 | 5.2 | 15.6 | 0.03 | 0.08 | 0.08 | 93 | 1013.1 |
| 20260507091539 | 54 | 209 | 10.4 | 19.1 | 0.04 | 0.08 | 0.08 | 94 | 1012.8 |
| 20260507090038 | 54 | 171 | 5.2 | 20.9 | 0.05 | 0.08 | 0.08 | 95 | 1012.9 |
| 20260507084539 | 53 | 194 | 5.2 | 12.2 | 0.06 | 0.07 | 0.07 | 95 | 1013.0 |
| 20260507083039 | 52 | 173 | 7.0 | 10.4 | 0.05 | 0.05 | 0.05 | 95 | 1013.1 |
| 20260507081536 | 52 | 203 | 3.5 | 8.7 | 0.04 | 0.04 | 0.04 | 95 | 1013.2 |
| 20260507080041 | 52 | 178 | 4.3 | 9.6 | 0.03 | 0.03 | 0.03 | 94 | 1013.2 |
| 20260507074542 | 53 | 190 | 4.3 | 16.5 | 0.01 | 0.01 | 0.01 | 94 | 1013.7 |
| 20260507073036 | 53 | 177 | 6.1 | 12.2 | 0.00 | 0.00 | 0.00 | 94 | 1013.9 |
| 20260507071537 | 53 | 213 | 3.5 | 8.7 | 0.00 | 0.00 | 0.00 | 94 | 1014.1 |
| 20260507070044 | 53 | 140 | 1.7 | 7.0 | 0.00 | 0.00 | 0.00 | 94 | 1014.1 |
| 20260507064537 | 53 | 196 | 2.6 | 8.7 | 0.00 | 0.00 | 0.00 | 94 | 1014.3 |
| 20260507063038 | 53 | 188 | 3.5 | 8.7 | 0.00 | 0.00 | 0.00 | 94 | 1014.4 |
| 20260507061532 | 53 | 170 | 3.5 | 10.4 | 0.00 | 0.00 | 0.00 | 94 | 1014.6 |
| 20260507060041 | 53 | 213 | 2.6 | 7.0 | 0.00 | 0.00 | 0.00 | 94 | 1015.0 |
| 20260507054535 | 53 | 177 | 3.5 | 10.4 | 0.00 | 0.00 | 0.00 | 94 | 1015.0 |
| 20260507053034 | 53 | 181 | 2.6 | 7.8 | 0.00 | 0.00 | 0.00 | 94 | 1015.3 |
| 20260507051540 | 53 | 238 | 3.5 | 9.6 | 0.00 | 0.00 | 0.00 | 94 | 1015.5 |
| 20260507050042 | 53 | 185 | 3.5 | 7.8 | 0.00 | 0.00 | 0.00 | 94 | 1016.1 |
| 20260507044537 | 53 | 223 | 3.5 | 7.8 | 0.00 | 0.00 | 0.00 | 94 | 1016.2 |
| 20260507043033 | 53 | 194 | 3.5 | 9.6 | 0.00 | 0.00 | 0.00 | 94 | 1016.5 |
| 20260507041538 | 53 | 204 | 3.5 | 9.6 | 0.00 | 0.00 | 0.00 | 94 | 1016.7 |
| 20260507040035 | 53 | 194 | 3.5 | 7.0 | 0.00 | 0.00 | 0.00 | 94 | 1017.0 |
| 20260507034550 | 53 | 188 | 3.5 | 8.7 | 0.00 | 0.00 | 0.00 | 94 | 1017.1 |